Location: Sternwarte ZA, Rosenfeld-Brittheim
(48.2889°N, 8.6789°E)
Time: 09:12:17
(UTC+01:00)

Envisat - Visible Passes

Search period start: 19 January 2019 00:00
Search period end: 29 January 2019 00:00
Orbit: 764 x 766 km, 98.2° (Epoch: 19 January)

Date Brightness Start Highest point End Pass type
(mag) Time Alt. Az. Time Alt. Az. Time Alt. Az.
19 Jan 6.0 06:44:54 10° NE 06:47:52 15° E 06:50:49 10° ESE visible
19 Jan 3.7 18:02:30 10° ESE 18:06:52 30° ENE 18:11:16 10° N visible
19 Jan 4.2 19:40:57 10° SSW 19:45:45 42° W 19:50:36 10° NNW visible
20 Jan 3.0 19:03:49 10° SSE 19:08:54 86° W 19:14:01 10° NNW visible
20 Jan 6.0 20:46:35 10° WSW 20:48:42 12° W 20:50:49 10° WNW visible
21 Jan 5.5 07:09:30 10° NE 07:13:43 25° E 07:17:53 10° SSE visible
21 Jan 3.2 18:27:23 10° SE 18:32:14 47° ENE 18:37:07 10° N visible
21 Jan 5.1 20:07:18 10° SSW 20:11:29 26° W 20:15:43 10° NW visible
22 Jan 6.2 06:34:28 10° ENE 06:36:30 12° E 06:38:31 10° ESE visible
22 Jan 4.0 17:51:41 10° ESE 17:55:46 25° ENE 17:59:52 10° N visible
22 Jan 3.8 19:29:33 10° S 19:34:30 52° W 19:39:29 10° NNW visible
23 Jan 2.9 18:52:38 10° SSE 18:57:42 78° ENE 19:02:48 10° NNW visible
23 Jan 5.8 20:34:20 10° SW 20:37:20 16° W 20:40:21 10° NW visible
24 Jan 5.8 06:58:36 10° NE 07:02:24 21° E 07:06:09 10° SE visible
24 Jan 3.4 18:16:25 10° SE 18:21:06 39° ENE 18:25:48 10° N visible
24 Jan 4.7 19:55:42 10° SSW 20:00:11 31° W 20:04:43 10° NNW visible
25 Jan 4.2 17:40:57 10° ESE 17:44:41 21° ENE 17:48:25 10° NNE visible
25 Jan 3.4 19:18:13 10° S 19:23:15 65° WSW 19:28:20 10° NNW visible
26 Jan 5.0 07:23:33 10° NNE 07:28:10 34° E 07:32:45 10° SSE visible
26 Jan 2.9 18:41:30 10° SSE 18:46:31 63° ENE 18:51:33 10° N visible
26 Jan 5.5 20:22:23 10° SW 20:25:59 19° W 20:29:37 10° NW visible
27 Jan 6.0 06:47:49 10° NE 06:51:03 17° E 06:54:16 10° SE visible
27 Jan 3.7 18:05:30 10° SE 18:09:58 32° ENE 18:14:28 10° N visible
27 Jan 4.4 19:44:11 10° SSW 19:48:54 39° W 19:53:40 10° NNW visible
28 Jan 3.1 19:06:57 10° S 19:12:02 80° WSW 19:17:09 10° NNW visible
28 Jan 6.1 20:50:19 10° WSW 20:51:54 11° W 20:53:28 10° WNW visible
